DECAYED
Showing default

NEUSAR, 52937 (Decayed)

Orbit data source: Space-Track

NEUSAR, 52937 was a Singaporean payload satellite in LEO that was launched on Thu, 30 Jun 2022 UTC via a PSLV launch vehicle from the Sirharikota (SRI). Payload-class satellites include a variety of spacecraft equipped with specific instruments for various scientific and technological missions. These include communications satellites like Starlink; space stations such as the ISS; scientific satellites like the Hubble; Earth observation satellites from companies like Planet Labs, Umbra, and HawkEye 360; GPS; miniature CubeSats for education and research; and military/defense satellites.

Not visible in the next 10 days
Identifier
52937, 2022-072C
Orbit
Decayed
Country
Flag of SGSG / SING
Related business
Manufacturer
SATRHW/STELEC
Mission
Decayed Defense Radar Imaging
Bus & Motor
NEUSAR, Unknown motor
Mass
155 kg wet, ~150 kg dry
Launch date (UTC)
2022-06-30 (4 years ago)
Launch vehicle
PSLV
Launch site
Sirharikota (SRI)
Object type
Payload
Rocket body
Debris
Shape & HBR
Box + 1 Pan, 0.5 m
Radar Cross Section
1.500 m², Large (>1 m²)

Expand to show TLE details & history
Last TLE update: 1 year ago

TLE from 1 year ago
0 NEUSAR
1 52937U 22072C   25152.04808332  .04420552  61409-1  41525-2 0  9994
2 52937   9.9764  13.8945 0007131 298.8975  61.0535 16.16371450161858
Epoch: 2025-06-01T01:09Z
TLE epoch observation values (Epoch: 2025-06-01T01:09:14.398Z)
Latitude
0.00001°
Longitude
106.80482°
Altitude
224.028 km
Speed
7.777 km/s
True Right ascension
00h 55m 34s
True Declination
0° 00' 00"
Sunlit
Object was in daylight at epoch
Visualization orbit readout
Latitude
Unknown
Longitude
Unknown
Altitude
Unknown
Speed
Unknown
Apparent Right ascension
Unknown
Apparent Declination
Unknown
Sunlit
N/A
Visualization observer readout
Local Sidereal Time
13:13:25
Azimuth
Unknown
Elevation
Unknown
Doppler factor
Unknown
Orbital elements
Apogee altitude
240.512 km
Perigee altitude
231.08 km
Semi-major axis
6,613.933 km
Eccentricity
0.00071
Inclination
9.9764°
RAAN
13.8945°
Arg. of periapsis
298.8975°
True anomaly
61.12504°
Mean anomaly
61.0535°
Eccentric anomaly
61.08927°
Mean motion
4.03509 °/min
Orbital period
89.22 mins
BSTAR
0.0041525
Loading maneuver chart data...
Computing Atmospheric mass density...
Loading historical data...
Loading historical data...
Loading historical data...
Loading historical data...
Loading historical data...
Loading historical data...
Loading historical data...
Other satellites on launch #72 in the year 2022 (2022-06-30 UTC)

Documentation

Showing up to 5 results
|